(471) Papagena
ephemeris date magn radius delta ra dec elong phase
Today6 Jul 202511.22.299 AU2.394 AU02h18m-01°03'72.3°24.9°
Opposition10 Nov 20259.12.231 AU1.262 AU03h20m+01°56'164.1°7.0°
(471) Papagena - 2025-07-06
astro.vanbuitenen.nl


 
-1 year
-1 month
-1 day
Now
+1 day
+1 month
+1 year

The interactive orbit chart above shows the body's path through the solar system and its position at the given date. Green and blue lines are shown perpendicular to the ecliptic plane: Green if the path is above the ecliptic plane, blue if it is below. (Left-click and drag to rotate the view; Right-click and drag to move the view; Use scroll wheel to zoom in our out.)

The orbital elements of Papagena are:

            e (Eccentricity)                : 0.2290234
            a (Semimajor axis)              : 2.8885289
            i (Inclination)                 : 15.01908
            Ω (Longitude of ascending node) : 83.77139
            ω (Argument of perihelion)      : 315.87748
            M (Mean anomaly)                : 326.52079
            Epoch                           : 2025 May 05

            L (Longitude of perihelion)     : 40.64340
            B (Latitude of perihelion)      : -10.39379
            P (Orbital period in years)     : 4.91            
        

The light curve chart below shows the estimated development of the minor planet's magnitude.


The all-sky chart below shows the path of the minor planet over the same period as the light curve. The current position is marked yellow.





The following chart shows the path of the minor planet in the next few days. The field of view is optimized for (~10x50) binoculars and finderscopes. A more printer-friendly version of the same chart can be found below.




Ephemerides:
Date       Time       RA (2000)    DEC (2000)    delta   radius  elong  phase   PA    magn
2025-07-06 00:00 UT   02 18 52.9   -01 03 02     2.394    2.299   72.3   24.9   246   11.2 
2025-07-06 01:12 UT   02 18 57.6   -01 02 45     2.393    2.299   72.4   24.9   246   11.2 
2025-07-07 00:00 UT   02 20 27.7   +00 57 25     2.382    2.298   72.9   25.0   246   11.2 
2025-07-08 00:00 UT   02 22 02.1   +00 51 53     2.370    2.296   73.4   25.1   246   11.2 
2025-07-09 00:00 UT   02 23 36.1   +00 46 27     2.359    2.295   73.9   25.2   246   11.2 
2025-07-10 00:00 UT   02 25 09.7   +00 41 07     2.347    2.294   74.4   25.3   247   11.1 
2025-07-11 00:00 UT   02 26 42.9   +00 35 51     2.335    2.293   75.0   25.4   247   11.1 
2025-07-12 00:00 UT   02 28 15.7   +00 30 42     2.324    2.291   75.5   25.4   247   11.1 
2025-07-13 00:00 UT   02 29 48.0   +00 25 37     2.312    2.290   76.0   25.5   247   11.1 
2025-07-14 00:00 UT   02 31 19.8   +00 20 39     2.300    2.289   76.6   25.6   248   11.1 
2025-07-15 00:00 UT   02 32 51.2   +00 15 46     2.289    2.288   77.1   25.7   248   11.1 
2025-07-16 00:00 UT   02 34 22.1   +00 10 58     2.277    2.286   77.6   25.7   248   11.1 
2025-07-17 00:00 UT   02 35 52.5   +00 06 17     2.265    2.285   78.2   25.8   248   11.1 
2025-07-18 00:00 UT   02 37 22.4   +00 01 41     2.254    2.284   78.7   25.9   248   11.1 
2025-07-19 00:00 UT   02 38 51.8   +00 02 50     2.242    2.283   79.3   25.9   249   11.1 
2025-07-20 00:00 UT   02 40 20.7   +00 07 14     2.230    2.282   79.8   26.0   249   11.0 
2025-07-21 00:00 UT   02 41 49.0   +00 11 32     2.218    2.280   80.4   26.1   249   11.0 
2025-07-22 00:00 UT   02 43 16.7   +00 15 45     2.207    2.279   80.9   26.1   249   11.0 
2025-07-23 00:00 UT   02 44 43.9   +00 19 52     2.195    2.278   81.5   26.2   250   11.0 
2025-07-24 00:00 UT   02 46 10.5   +00 23 52     2.183    2.277   82.1   26.2   250   11.0 
2025-07-25 00:00 UT   02 47 36.4   +00 27 47     2.171    2.276   82.6   26.3   250   11.0 
2025-07-26 00:00 UT   02 49 01.8   +00 31 36     2.159    2.275   83.2   26.3   250   11.0 
2025-07-27 00:00 UT   02 50 26.5   +00 35 19     2.148    2.274   83.8   26.4   251   11.0 
2025-07-28 00:00 UT   02 51 50.5   +00 38 55     2.136    2.273   84.3   26.4   251   11.0 


    Terminology:
            
    delta:  distance between minor planet and earth in AU
    radius: distance between minor planet and sun in AU
    magn:   magnitude (brightness) estimate    
    ra:     right ascension in hours (24h = 360deg)
    dec:    declination in degrees
    elong:  elongation in degrees (angle sun-earth-minor planet)    
    phase:  phase angle in degrees (angle sun-minor planet-earth)        
    AU:     Astronomical Unit (mean distance between earth and sun: 149597870.7 km
    

Orbital elements provided by the MPC (Minor Planet Center).
Calculations by a modified version of AAPlus, a C# implementation of the AA+ project by PJ Naughter from the algorithms presented in the book "Astronomical Algorithms" by Jean Meeus.
NGC2000 dso catalog and star labels from VizieR as provided by the Strasbourg astronomical Data Center.
Tycho2 catalog from the ESO archive.